Location: Long Sault Conservation Area
(44.0496°N, 78.7419°W)
Time: 20:56:13
(UTC-04:00)

Daily predictions for brighter satellites

Satellite Brightness Start Highest point End
(mag) Time Altitude Azimuth Time Altitude Azimuth Time Altitude Azimuth
Cosmos 990 Rocket 4.0 19:52:28 10° S 19:57:40 67° ESE 20:02:53 10° NNE
FREGAT/IRIS 2.7 19:59:10 10° S 20:02:14 84° W 20:05:19 10° NNW
Cosmos 2150 Rocket 4.1 19:57:07 10° SSW 20:02:16 86° WNW 20:07:28 10° NNE
Cosmos 1821 Rocket 4.1 19:56:39 10° S 20:03:02 80° E 20:09:24 10° N
Lacrosse 4 Rocket 2.3 20:00:41 10° SW 20:04:39 52° WNW 20:08:38 10° NNE
Cosmos 1953 3.5 20:02:10 10° SE 20:05:21 23° E 20:08:33 10° NE
Cosmos 1898 Rocket 4.2 20:01:13 10° SSW 20:06:28 63° WNW 20:11:44 10° NNE
Envisat 4.4 20:04:04 10° ESE 20:07:43 20° ENE 20:11:23 10° NNE
GP-B 4.4 20:05:55 10° SE 20:09:11 20° ENE 20:12:28 10° NNE
USA 186 3.0 20:08:27 10° ESE 20:09:37 13° ENE 20:10:46 10° NE
Helios 1A 4.1 20:08:10 10° ESE 20:11:37 26° ENE 20:15:06 10° N
Cosmos 1125 Rocket 4.1 20:10:31 10° SSE 20:15:06 32° E 20:19:43 10° NE
Resurs 01 Rocket 1.7 20:10:58 10° SSE 20:15:18 58° ENE 20:19:40 10° N
Cosmos 1766 3.2 20:12:56 10° S 20:16:48 79° E 20:20:43 10° N
Cosmos 1844 4.2 20:11:54 10° SSW 20:17:39 69° WNW 20:23:29 10° NNE
Cosmos 1605 Rocket 4.1 20:14:59 10° S 20:21:08 61° E 20:27:25 10° NNE
Cosmos-2242 4.3 20:20:15 10° SE 20:23:24 20° E 20:26:33 10° NE
Lacrosse 5 rocket 2.5 20:20:24 10° NNW 20:23:53 27° NNE 20:26:41 13° E
Cosmos 1674 3.6 20:25:46 10° NNE 20:29:05 28° ENE 20:31:54 13° SE
SeaSat 1 2.8 20:24:52 10° SSE 20:29:46 67° WSW 20:34:42 10° NNW
HJ-1C 3.9 20:26:26 10° S 20:29:47 63° W 20:33:12 10° NNW
Cosmos 2123 Rocket 4.1 20:27:12 10° N 20:33:33 83° W 20:39:50 10° S
SAR-Lupe-4 3.9 20:31:45 10° SE 20:35:10 44° ENE 20:38:36 10° N
SL-27 R/B 4.2 20:32:54 10° NW 20:36:12 35° WSW 20:39:32 10° S
RESURS DK-1 3.9 20:34:28 10° NW 20:38:18 37° WSW 20:42:06 10° S
Cosmos 2344 3.9 20:34:55 10° SW 20:42:35 79° NW 20:51:28 10° NE
Meteor 1-21 Rocket 4.3 20:37:26 10° N 20:43:15 65° ENE 20:49:05 10° SSE
BREEZE-M DEB (TANK) 3.4 20:41:12 10° NW 20:43:17 27° NNE 20:44:40 17° ENE
CZ-2D R/B 3.2 20:40:07 10° SSE 20:43:59 87° ENE 20:47:55 10° NNW
Meteor 1-29 3.7 20:42:15 10° NNE 20:45:24 31° E 20:48:19 11° SSE
In-Cosmos 22 4.4 20:40:19 10° NNW 20:45:37 71° W 20:50:51 10° S
OE (NEXTSAT) 4.3 20:42:04 10° WSW 20:45:41 86° SSE 20:47:59 21° ENE
CZ-3B DEB 3.1 20:36:10 10° WSW 20:46:58 67° NW 20:51:50 10° NE
Cosmos 1805 3.2 20:44:55 10° S 20:48:49 86° W 20:52:45 10° N
Cosmos 1818 3.6 20:44:12 10° NW 20:49:41 81° WSW 20:54:41 12° SSE
COSMOS 2487 2.5 20:47:37 10° NNW 20:51:10 61° ENE 20:53:15 22° SE
ALOS 3.8 20:49:07 10° SSW 20:53:27 38° W 20:57:49 10° NNW
SAR-Lupe-1 4.0 20:51:15 16° SSE 20:54:00 66° ENE 20:57:35 10° N
Cosmos 1153 Rocket 4.5 20:48:08 10° S 20:54:30 76° E 21:00:55 10° N
Cosmos 482 Debris 4.2 20:53:13 10° NW 20:54:32 23° N 20:54:32 23° N
Resurs 1-3 4.1 20:51:23 10° S 20:55:43 62° WSW 21:00:06 10° NNW
Cosmos 1269 Rocket 4.0 20:50:43 10° NNW 20:56:02 81° ENE 21:00:49 13° SSE
Cosmos 2061 Rocket 4.3 20:51:56 10° SSE 20:57:55 44° E 21:03:58 10° NNE
NOSS 2 (F) 4.5 20:57:10 10° NW 21:00:02 86° NE 21:01:11 36° SE
Meteor 1-4 Rocket 2.5 20:56:44 10° SSW 21:00:12 78° W 21:03:42 10° N
Timation 2 Rocket 3.9 20:54:39 10° NNW 21:01:02 72° ENE 21:05:26 20° SE
Timation 1 Rocket 4.3 20:55:26 10° SSW 21:01:27 87° ESE 21:07:30 10° NNE
Cosmos 1833 Rocket 2.6 20:55:49 10° NNW 21:01:29 77° ENE 21:05:39 19° SSE
Cosmos 1408 Rocket 3.5 20:59:24 10° N 21:03:54 78° E 21:07:46 14° SSE
Cosmos 1470 2.9 21:00:58 10° S 21:04:49 52° E 21:08:43 10° NNE
Cosmos 2278 Rocket 3.2 21:03:07 10° SW 21:08:36 48° WNW 21:14:06 10° NNE
Cosmos 1544 4.2 21:05:07 10° SSW 21:08:38 46° WNW 21:12:12 10° N
Cosmos 1340 Rocket 2.8 21:06:52 10° N 21:10:51 58° ENE 21:12:09 38° SE
Cosmos 372 Rocket 3.8 21:07:31 10° SSW 21:12:37 79° ESE 21:17:47 10° NNE
CZ-4B DEB 2.6 21:12:04 43° S 21:12:58 88° WSW 21:16:05 10° NNW
Cosmos 1733 3.1 21:10:59 17° S 21:13:50 64° E 21:17:42 10° NNE
Cosmos 1459 Rocket 3.9 21:08:38 10° S 21:14:48 64° E 21:20:55 10° NNE
USA 215 3.4 21:10:49 10° ENE 21:17:06 48° SE 21:23:20 10° SSW
Cosmos 1842 Rocket 4.3 21:18:21 34° ENE 21:18:21 34° ENE 21:21:50 10° NNE
Cosmos 2058 4.5 21:15:19 10° NNE 21:17:39 20° NE 21:17:39 20° NE
Cosmos 158 Rocket 4.1 21:13:58 10° NNW 21:19:06 77° WSW 21:22:45 20° SSE
ATLAS 5 CENTAUR R/B 1.7 21:15:03 10° SSW 21:19:40 62° ESE 21:24:43 10° NE
ISS -1.9 21:17:12 10° SSW 21:18:25 19° SSW 21:18:25 19° SSW
Cosmos 2173 Rocket 3.9 21:14:26 10° S 21:20:33 69° E 21:26:48 10° NNE
Cosmos 2151 4.0 21:20:01 10° N 21:23:15 30° ENE 21:23:15 30° ENE
Cosmos 2297 3.9 21:18:39 10° SSW 21:24:22 75° WNW 21:30:08 10° NNE
Cosmos 1867 3.7 21:21:17 10° SW 21:26:44 78° NW 21:32:15 10° NNE
Abrixas 4.4 21:24:55 10° W 21:26:58 21° SW 21:26:58 21° SW
Helios 1B rocket 3.1 21:27:39 10° N 21:31:43 56° WNW 21:35:44 10° SSW
Meteor 1-11 4.3 21:30:10 10° N 21:35:37 52° ENE 21:36:37 46° ESE
Cosmos 494 Rocket 4.0 21:31:31 10° NNW 21:36:35 57° ENE 21:37:19 52° E
Cosmos 2082 Rocket 2.9 21:31:45 10° NW 21:37:15 51° WSW 21:41:10 19° S
SL-14 R/B 3.7 21:35:01 10° N 21:38:04 47° NNE 21:38:04 47° NNE
Lacrosse 5 3.4 21:35:31 10° W 21:40:08 34° NNW 21:44:46 10° NE
USA 186 4.3 21:39:54 11° WSW 21:40:20 12° W 21:41:14 10° WNW
Cosmos 1328 3.8 21:37:35 10° N 21:41:11 66° NNE 21:41:11 66° NNE
Cosmos 1953 4.4 21:38:07 10° SW 21:41:39 28° WNW 21:45:12 10° NNW
Meteor 2-17 Rocket 4.3 21:40:14 17° S 21:45:05 76° E 21:51:14 10° NNE
SPOT 5 3.4 21:45:02 45° ENE 21:45:10 45° ENE 21:50:15 10° N
GP-B 4.5 21:42:06 10° SSW 21:46:14 38° W 21:50:24 10° NNW
Envisat 3.6 21:42:59 21° S 21:46:19 56° W 21:51:20 10° NNW
Cosmos 1939 Rocket 3.5 21:45:32 38° SSW 21:46:49 55° W 21:50:55 10° NNW
Meteor 1-16 Rocket 4.2 21:44:17 34° S 21:46:52 69° E 21:52:47 10° NNE
Cosmos 1271 Rocket 3.8 21:46:27 10° SSW 21:50:18 45° WNW 21:54:13 10° N
MetOp-A 4.1 21:50:03 59° E 21:50:32 62° ENE 21:55:49 10° N
USA 267 3.8 21:48:09 33° ENE 21:50:35 47° NNE 21:56:47 10° NW
ARGOS 3.5 21:51:33 45° ENE 21:51:33 45° ENE 21:56:31 10° N
H-2A R/B 3.3 21:52:51 29° NE 21:52:51 29° NE 21:56:38 10° N
Cosmos 2016 Rocket 3.9 21:47:02 15° S 21:52:19 87° E 21:58:31 10° N
Cosmos 1184 Rocket 4.2 21:52:47 10° NNW 21:55:05 38° NW 21:55:05 38° NW
Cosmos 1725 Rocket 3.8 21:59:08 54° SSE 22:00:29 71° E 22:06:39 10° NNE
Terra 3.8 22:04:45 17° NE 22:04:45 17° NE 22:06:26 10° NNE
Lacrosse 5 rocket 2.3 21:59:31 10° NW 22:02:25 41° W 22:02:25 41° W
ERS-1 Rocket 3.1 22:03:22 56° SSW 22:04:15 69° WSW 22:09:18 10° NNW
YAOGAN 6 4.0 22:10:52 39° NW 22:10:52 39° NW 22:13:35 10° NNW
Tsikada Rocket 3.9 22:10:23 10° N 22:16:37 88° W 22:17:28 69° S
H-2A R/B 4.2 22:23:36 17° NNE 22:23:36 17° NNE 22:24:45 10° N
Cosmos 2369 Rocket 4.2 22:34:54 17° NNE 22:34:54 17° NNE 22:36:10 10° NNE
Cosmos 2346 Rocket 4.5 22:25:13 10° N 22:30:52 70° NE 22:30:52 70° NE
Cosmos 2251 Rocket 4.3 22:29:04 10° NNW 22:34:09 46° WSW 22:34:11 46° WSW
SPOT 1/Viking Rocket 4.2 22:37:04 52° N 22:37:04 52° N 22:41:00 10° NNW
CZ-3B DEB 3.9 22:54:57 10° WNW 22:59:23 20° NNW 22:59:39 20° NNW
USA 215 3.7 22:53:48 10° NE 23:00:12 59° NNW 23:06:34 10° WSW
ATLAS 5 CENTAUR R/B 3.9 23:00:46 10° W 23:04:48 25° NW 23:09:10 10° NNE
Lacrosse 5 4.2 23:20:50 10° NW 23:24:26 19° N 23:24:38 19° N
H-2A R/B 3.9 23:33:28 28° NW 23:33:28 28° NW 23:36:21 10° NNW
USA 267 4.0 23:35:30 45° WNW 23:35:30 45° WNW 23:39:57 10° NW
Terra 4.3 23:43:38 18° NNW 23:43:38 18° NNW 23:44:59 10° NNW
